Starlink 1767

operational
NORAD ID: 46345 Int'l Des: 2020-062 Owner: SPXS Country: US Constellation: starlink
LEOCIRCULAR

About Starlink 1767

Description loading...

Live Position

Loading 3D Globe...

Upcoming Passes

Altitude History

Altitude vs Time

uPlot chart will show altitude changes over time

Two-Line Element Set

1 46345U 20062W 25257.20082967 .00082531 00000-0 21018-2 0 9990
2 46345 53.0509 78.6009 0007618 192.3678 167.7139 15.38846151277859
Epoch: Sep 14, 2025 • Age: 27 hours

Current Status

Altitude 454.3 km
Velocity 7.64 km/s
Sub-Earth Point 10.62°N, 23.68°W
Launch Date Sep 3, 2020
Age 5 years
Type internet

Technical Details

Classification Payload
Mass 260.00 kg
Dry Mass 248.00 kg
Total Mass 260.00 kg
Length 0.20 m
Diameter 2.80 m
Span 9.00 m
Shape Box + pan
Manufacturer SPXS
Bus Type Starlink
Phase Status In Orbit
Owner/State SPXS/US

Large Constellations

Loading constellations...